| time (UTC) | temp C | wind direction | speed KPH | gust KPH | rain 1hr cm | rain 24hr cm | rain mn cm | humidity % | barometer mb |
| 20260904200019 | 12 | 249 | 0.0 | 0.0 | 0.00 | 0.00 | 0.43 | 88 | 995.9 |
| 20260904194517 | 12 | 249 | 0.0 | 0.0 | 0.00 | 0.00 | 0.43 | 87 | 995.9 |
| 20260904193017 | 12 | 249 | 0.0 | 0.0 | 0.00 | 0.00 | 0.43 | 87 | 995.9 |
| 20260904191515 | 12 | 249 | 0.0 | 0.0 | 0.00 | 0.00 | 0.43 | 86 | 996.1 |
| 20260904190012 | 13 | 248 | 0.0 | 0.0 | 0.00 | 0.00 | 0.43 | 85 | 996.1 |
| 20260904184511 | 13 | 248 | 0.0 | 0.0 | 0.00 | 0.00 | 0.43 | 84 | 996.0 |
| 20260904183021 | 13 | 360 | 0.0 | 0.0 | 0.00 | 0.00 | 0.43 | 84 | 996.1 |
| 20260904181523 | 13 | 227 | 0.0 | 0.0 | 0.00 | 0.00 | 0.43 | 83 | 996.1 |
| 20260904180010 | 13 | 205 | 0.0 | 0.0 | 0.00 | 0.00 | 0.43 | 82 | 996.1 |
| 20260904174510 | 14 | 231 | 0.0 | 0.0 | 0.00 | 0.00 | 0.43 | 81 | 996.1 |
| 20260904173023 | 14 | 225 | 0.0 | 0.0 | 0.00 | 0.00 | 0.43 | 79 | 996.0 |
| 20260904171512 | 15 | 244 | 0.0 | 0.0 | 0.00 | 0.00 | 0.43 | 78 | 995.8 |
| 20260904170010 | 15 | 360 | 0.0 | 0.0 | 0.00 | 0.00 | 0.43 | 76 | 995.7 |
| 20260904164508 | 15 | 265 | 0.0 | 0.0 | 0.00 | 0.00 | 0.43 | 75 | 995.7 |
| 20260904163012 | 16 | 138 | 0.0 | 0.0 | 0.00 | 0.00 | 0.43 | 73 | 995.9 |
| 20260904161512 | 17 | 302 | 0.0 | 0.0 | 0.00 | 0.00 | 0.43 | 69 | 995.9 |
| 20260904160011 | 17 | 253 | 0.0 | 0.0 | 0.00 | 0.00 | 0.43 | 72 | 995.9 |
| 20260904154510 | 17 | 325 | 0.0 | 0.0 | 0.00 | 0.00 | 0.43 | 73 | 995.9 |
| 20260904153011 | 17 | 187 | 0.0 | 0.0 | 0.00 | 0.00 | 0.43 | 71 | 996.0 |
| 20260904151507 | 17 | 298 | 0.0 | 0.0 | 0.00 | 0.00 | 0.43 | 70 | 996.0 |
| 20260904150006 | 17 | 310 | 0.0 | 0.0 | 0.00 | 0.00 | 0.43 | 71 | 996.0 |
| 20260904144505 | 17 | 237 | 0.0 | 0.0 | 0.00 | 0.00 | 0.43 | 68 | 996.0 |
| 20260904143008 | 17 | 204 | 0.0 | 0.0 | 0.00 | 0.00 | 0.43 | 69 | 996.0 |
| 20260904141506 | 17 | 287 | 0.0 | 0.0 | 0.00 | 0.00 | 0.43 | 70 | 996.2 |
| 20260904140005 | 17 | 281 | 0.0 | 0.0 | 0.00 | 0.00 | 0.43 | 73 | 996.3 |
| 20260904134505 | 16 | 360 | 0.0 | 0.0 | 0.00 | 0.00 | 0.43 | 73 | 996.3 |
| 20260904133003 | 16 | 360 | 0.0 | 0.0 | 0.00 | 0.00 | 0.43 | 75 | 996.5 |
| 20260904131502 | 16 | 219 | 0.0 | 0.0 | 0.00 | 0.00 | 0.43 | 75 | 996.6 |
| 20260904130003 | 17 | 360 | 0.0 | 0.0 | 0.00 | 0.00 | 0.43 | 75 | 996.8 |
| 20260904124501 | 17 | 228 | 0.0 | 0.0 | 0.00 | 0.00 | 0.43 | 74 | 996.7 |
| 20260904123002 | 17 | 169 | 0.0 | 0.0 | 0.00 | 0.00 | 0.43 | 74 | 996.8 |
| 20260904121501 | 17 | 261 | 0.0 | 0.0 | 0.00 | 0.00 | 0.43 | 74 | 996.8 |
| 20260904120106 | 17 | 244 | 0.0 | 0.0 | 0.00 | 0.00 | 0.43 | 74 | 997.2 |
| 20260904114558 | 17 | 248 | 0.0 | 0.0 | 0.00 | 0.00 | 0.43 | 73 | 997.3 |
| 20260904113058 | 16 | 360 | 0.0 | 0.0 | 0.00 | 0.00 | 0.43 | 74 | 997.3 |
| 20260904111558 | 16 | 267 | 0.0 | 0.0 | 0.00 | 0.00 | 0.43 | 73 | 997.3 |
| 20260904110057 | 17 | 253 | 0.0 | 0.0 | 0.00 | 0.00 | 0.43 | 74 | 997.2 |
| 20260904104553 | 16 | 360 | 0.0 | 0.0 | 0.00 | 0.00 | 0.43 | 78 | 997.4 |
| 20260904103051 | 16 | 224 | 0.0 | 0.0 | 0.00 | 0.00 | 0.43 | 80 | 997.5 |
| 20260904101551 | 15 | 244 | 0.0 | 0.0 | 0.00 | 0.00 | 0.43 | 79 | 997.6 |
| 20260904100053 | 15 | 210 | 0.0 | 0.0 | 0.00 | 0.00 | 0.43 | 79 | 997.7 |
| 20260904094548 | 15 | 298 | 0.0 | 0.0 | 0.00 | 0.00 | 0.43 | 81 | 997.9 |
| 20260904093053 | 15 | 213 | 0.0 | 0.0 | 0.00 | 0.00 | 0.43 | 80 | 997.9 |
| 20260904091553 | 15 | 246 | 0.0 | 0.0 | 0.00 | 0.00 | 0.43 | 82 | 998.0 |
| 20260904090045 | 15 | 253 | 0.0 | 0.0 | 0.00 | 0.00 | 0.43 | 83 | 998.0 |
| 20260904084545 | 15 | 230 | 0.0 | 0.0 | 0.00 | 0.00 | 0.43 | 84 | 998.1 |
| 20260904083045 | 15 | 360 | 0.0 | 0.0 | 0.00 | 0.00 | 0.43 | 86 | 998.1 |
| 20260904081543 | 15 | 205 | 0.0 | 0.0 | 0.00 | 0.00 | 0.43 | 87 | 998.0 |
| 20260904080042 | 15 | 271 | 0.0 | 0.0 | 0.00 | 0.00 | 0.43 | 88 | 998.0 |
| 20260904074558 | 14 | 265 | 0.0 | 0.0 | 0.00 | 0.00 | 0.43 | 89 | 998.1 |
| 20260904073040 | 14 | 233 | 0.0 | 0.0 | 0.00 | 0.00 | 0.43 | 89 | 998.1 |
| 20260904071558 | 13 | 228 | 0.0 | 0.0 | 0.00 | 0.00 | 0.43 | 91 | 998.2 |
| 20260904070038 | 13 | 236 | 0.0 | 0.0 | 0.00 | 0.00 | 0.43 | 91 | 998.2 |
| 20260904064541 | 13 | 192 | 0.0 | 0.0 | 0.00 | 0.00 | 0.43 | 91 | 998.4 |
| 20260904063046 | 13 | 221 | 0.0 | 0.0 | 0.00 | 0.00 | 0.43 | 92 | 998.6 |
| 20260904061534 | 13 | 209 | 0.0 | 0.0 | 0.00 | 0.00 | 0.43 | 92 | 998.7 |
| 20260904060034 | 13 | 256 | 0.0 | 0.0 | 0.00 | 0.00 | 0.43 | 92 | 998.8 |
| 20260904054536 | 13 | 360 | 0.0 | 0.0 | 0.00 | 0.00 | 0.43 | 92 | 998.8 |
| 20260904053037 | 13 | 173 | 0.0 | 0.0 | 0.00 | 0.00 | 0.43 | 92 | 998.8 |
| 20260904051534 | 13 | 232 | 0.0 | 0.0 | 0.00 | 0.00 | 0.43 | 92 | 998.9 |
| 20260904050034 | 13 | 239 | 0.0 | 0.0 | 0.00 | 0.00 | 0.43 | 92 | 999.0 |
| 20260904044532 | 13 | 205 | 0.0 | 0.0 | 0.00 | 0.00 | 0.43 | 93 | 998.8 |
| 20260904043033 | 13 | 270 | 0.0 | 0.0 | 0.00 | 0.00 | 0.43 | 93 | 998.8 |
| 20260904041533 | 13 | 227 | 0.0 | 0.0 | 0.00 | 0.00 | 0.43 | 93 | 998.8 |
| 20260904040031 | 13 | 233 | 0.0 | 0.0 | 0.00 | 0.00 | 0.43 | 93 | 998.8 |
| 20260904034533 | 13 | 246 | 0.0 | 0.0 | 0.00 | 0.00 | 0.43 | 93 | 998.8 |
| 20260904033029 | 13 | 233 | 0.0 | 0.0 | 0.00 | 0.00 | 0.43 | 93 | 998.7 |
| 20260904031528 | 13 | 207 | 0.0 | 0.0 | 0.00 | 0.00 | 0.43 | 93 | 998.8 |
| 20260904030035 | 14 | 360 | 0.0 | 0.0 | 0.00 | 0.00 | 0.43 | 93 | 998.9 |
| 20260904024526 | 14 | 272 | 0.0 | 0.0 | 0.00 | 0.00 | 0.43 | 93 | 999.0 |
| 20260904023028 | 14 | 360 | 0.0 | 0.0 | 0.00 | 0.00 | 0.41 | 93 | 999.1 |
| 20260904021534 | 14 | 234 | 0.0 | 0.0 | 0.00 | 0.00 | 0.41 | 93 | 999.3 |
| 20260904020027 | 14 | 226 | 0.0 | 0.0 | 0.00 | 0.00 | 0.41 | 93 | 999.3 |
| 20260904014525 | 14 | 279 | 0.0 | 0.0 | 0.00 | 0.00 | 0.41 | 93 | 999.3 |
| 20260904013022 | 14 | 203 | 0.0 | 0.0 | 0.00 | 0.00 | 0.38 | 93 | 999.6 |
| 20260904011522 | 14 | 213 | 0.0 | 0.0 | 0.00 | 0.00 | 0.38 | 93 | 999.7 |
| 20260904010022 | 14 | 209 | 0.0 | 0.0 | 0.00 | 0.00 | 0.38 | 93 | 999.6 |
| 20260904004519 | 14 | 186 | 0.0 | 0.0 | 0.00 | 0.00 | 0.38 | 93 | 999.9 |
| 20260904003023 | 14 | 250 | 0.0 | 0.0 | 0.00 | 0.00 | 0.38 | 92 | 1000.5 |
| 20260904001517 | 14 | 138 | 0.0 | 0.0 | 0.00 | 0.00 | 0.36 | 92 | 1000.7 |
| 20260904000017 | 14 | 105 | 0.0 | 0.0 | 0.00 | 0.00 | 0.33 | 92 | 1000.7 |
| 20260903234514 | 14 | 128 | 0.0 | 0.0 | 0.00 | 0.00 | 0.30 | 92 | 1000.9 |
| 20260903233014 | 14 | 155 | 0.0 | 0.0 | 0.00 | 0.00 | 0.20 | 92 | 1001.0 |
| 20260903231510 | 14 | 111 | 0.0 | 0.0 | 0.00 | 0.00 | 0.08 | 91 | 1001.1 |
| 20260903230013 | 14 | 133 | 0.0 | 0.0 | 0.00 | 0.00 | 0.05 | 91 | 1001.1 |
| 20260903224508 | 14 | 129 | 0.0 | 0.0 | 0.00 | 0.00 | 0.00 | 90 | 1001.4 |
| 20260903223010 | 14 | 123 | 0.0 | 0.0 | 0.00 | 0.00 | 0.00 | 90 | 1001.8 |
| 20260903221521 | 14 | 113 | 0.0 | 0.0 | 0.00 | 0.00 | 0.00 | 90 | 1001.9 |
| 20260903220007 | 14 | 130 | 0.0 | 0.0 | 0.00 | 0.00 | 0.00 | 90 | 1002.0 |
| 20260903214506 | 14 | 135 | 0.0 | 0.0 | 0.00 | 0.00 | 0.00 | 89 | 1001.9 |
| 20260903213010 | 14 | 136 | 0.0 | 0.0 | 0.00 | 0.00 | 0.00 | 89 | 1002.1 |
| 20260903211502 | 14 | 117 | 0.0 | 0.0 | 0.00 | 0.00 | 0.00 | 89 | 1002.3 |
| 20260903210001 | 14 | 117 | 0.0 | 0.0 | 0.00 | 0.00 | 0.00 | 89 | 1002.5 |
| 20260903204604 | 14 | 117 | 0.0 | 0.0 | 0.00 | 0.00 | 0.00 | 88 | 1002.7 |
| 20260903203001 | 14 | 118 | 0.0 | 0.0 | 0.00 | 0.00 | 0.00 | 88 | 1002.9 |
| 20260903201601 | 14 | 117 | 0.0 | 0.0 | 0.00 | 0.00 | 0.00 | 88 | 1002.7 |